Topeka, KS

9:54 PM CST on November 19, 2019 (GMT -0600)
Billard Municipal

Weather History for KTOP - September, 2019

Change the Weather History Date:

Tuesday, September 17, 2019

  Actual Average Record
Temperature  
Mean Temperature 81 °F 68 °F  
Max Temperature 92 °F 80 °F 103 °F (1953)
Min Temperature 69 °F 56 °F 39 °F (1981)
Degree Days  
Heating Degree Days 0 2  
Month to date heating degree days 0 16  
Since 1 July heating degree days 0 18  
Cooling Degree Days 16 5  
Month to date cooling degree days 220 120  
Year to date cooling degree days 1466 1348  
Growing Degree Days 30 (Base 50)    
Moisture  
Dew Point 67 °F    
Average Humidity 69    
Maximum Humidity 97    
Minimum Humidity 41    
Precipitation  
Precipitation 0.00 in 0.12 in 2.51 in (1978)
Month to date precipitation 1.22 2.07  
Year to date precipitation 42.11 28.64  
Snow  
Snow 0.00 in 0.00 in 0.00 in ()
Month to date snowfall 0.0 0.0  
Year to date snowfall 18.5 11.3  
Since 1 July snowfall T 0.0  
Snow Depth 0.00 in    
Sea Level Pressure  
Sea Level Pressure 29.96 in    
Wind  
Wind Speed 7 mph (SSE)    
Max Wind Speed 16 mph    
Max Gust Speed 23 mph    
Visibility 10 miles    
Events      
T = Trace of Precipitation, MM = Missing Value Source: NWS Daily Summary

Daily Weather History Graph

Daily Weather History Graph

Search for Another Location

Airport or City:

Astronomy

Sep. 17, 2019 Rise Set
Actual Time 7:05 AM CDT 7:27 PM CDT
Civil Twilight 6:38 AM CDT 7:54 PM CDT
Nautical Twilight 6:07 AM CDT 8:25 PM CDT
Astronomical Twilight 5:35 AM CDT 8:58 PM CDT
Moon 9:32 PM CDT (9/17) 10:09 AM CDT (9/17)
Length of Visible Light 13h 15m
Length of Day
12h 22m
Waning Gibbous, 89% of the Moon is Illuminated
Sep 17
Waning Gibbous
Sep 21
Last Quarter
Sep 28
New
Oct 5
First Quarter
Oct 13
Full

Hourly Weather History & Observations

Time (CDT) Temp. Heat Index Dew Point Humidity Pressure Visibility Wind Dir Wind Speed Gust Speed Precip Events Conditions
12:53 AM 73.0 °F - 68.0 °F 84% 29.98 in 10.0 mi ESE 3.5 mph - N/A   Clear
1:53 AM 73.0 °F - 68.0 °F 84% 29.99 in 10.0 mi East 3.5 mph - N/A   Clear
2:53 AM 73.9 °F - 69.1 °F 85% 29.99 in 10.0 mi ESE 3.5 mph - N/A   Clear
3:53 AM 71.1 °F - 68.0 °F 90% 29.98 in 8.0 mi Calm Calm - N/A   Clear
4:53 AM 70.0 °F - 66.9 °F 90% 29.98 in 9.0 mi Calm Calm - N/A   Clear
5:53 AM 70.0 °F - 68.0 °F 93% 29.98 in 4.0 mi Calm Calm - N/A   Clear
6:53 AM 70.0 °F - 66.9 °F 90% 29.99 in 9.0 mi ESE 4.6 mph - N/A   Clear
7:53 AM 72.0 °F - 68.0 °F 87% 30.00 in 9.0 mi Calm Calm - N/A   Clear
8:53 AM 75.9 °F - 69.1 °F 79% 30.00 in 10.0 mi SE 4.6 mph - N/A   Clear
9:53 AM 79.0 °F - 69.1 °F 72% 30.01 in 10.0 mi SSE 8.1 mph - N/A   Clear
10:53 AM 84.0 °F 87.0 °F 68.0 °F 58% 30.01 in 10.0 mi SSW 8.1 mph - N/A   Clear
11:53 AM 84.9 °F 88.8 °F 69.1 °F 59% 30.00 in 10.0 mi South 8.1 mph - N/A   Clear
12:53 PM 89.1 °F 92.1 °F 66.9 °F 48% 29.98 in 10.0 mi South 12.7 mph - N/A   Clear
1:53 PM 89.1 °F 92.9 °F 68.0 °F 50% 29.96 in 10.0 mi South 13.8 mph 19.6 mph N/A   Clear
2:53 PM 89.1 °F 91.3 °F 66.0 °F 46% 29.95 in 10.0 mi South 13.8 mph 23.0 mph N/A   Clear
3:53 PM 91.0 °F 93.8 °F 66.0 °F 44% 29.93 in 10.0 mi South 12.7 mph - N/A   Clear
4:53 PM 91.0 °F 92.6 °F 64.0 °F 41% 29.92 in 10.0 mi South 15.0 mph 19.6 mph N/A   Partly Cloudy
5:53 PM 90.0 °F 92.4 °F 66.0 °F 45% 29.90 in 10.0 mi South 10.4 mph - N/A   Clear
6:53 PM 86.0 °F 88.8 °F 66.9 °F 53% 29.90 in 10.0 mi SSE 6.9 mph - N/A   Clear
7:53 PM 79.0 °F - 68.0 °F 69% 29.90 in 10.0 mi ESE 5.8 mph - N/A   Clear
8:53 PM 75.9 °F - 68.0 °F 76% 29.91 in 10.0 mi SE 5.8 mph - N/A   Clear
9:53 PM 77.0 °F - 68.0 °F 74% 29.91 in 10.0 mi SE 5.8 mph - N/A   Clear
10:53 PM 75.9 °F - 66.9 °F 74% 29.92 in 10.0 mi ESE 5.8 mph - N/A   Clear
11:53 PM 73.9 °F - 66.0 °F 76% 29.92 in 10.0 mi SE 5.8 mph - N/A   Clear